• In Uzbekistan
  • List of Countries
  • For 7 days
  • Water Temperature
  • Weather Map
  • Weather Widgets
  • user-avatar
    Login

    Hourly Weather Wegliska

    Today, 12 November, Tuesday

    Time Temperature Precipitation Wind Pressure Humidity
    00:00 +2°C° 0 mm 5 mps 736 mmHg 83%
    01:00 +2°C° 0 mm 5 mps 735 mmHg 83%
    02:00 +2°C° 0 mm 5 mps 735 mmHg 81%
    03:00 +3°C° 0 mm 4 mps 735 mmHg 80%
    04:00 +3°C° 0 mm 4 mps 735 mmHg 78%
    05:00 +3°C° 0 mm 3 mps 735 mmHg 78%
    06:00 +3°C° 0 mm 3 mps 735 mmHg 78%
    07:00 +4°C° 0 mm 2 mps 735 mmHg 74%
    08:00 +5°C° 0 mm 2 mps 735 mmHg 71%
    09:00 +7°C° 0 mm 2 mps 735 mmHg 67%
    10:00 +9°C° 0 mm 1 mps 735 mmHg 64%
    11:00 +9°C° 0 mm 1 mps 735 mmHg 64%
    12:00 +9°C° 0 mm 2 mps 735 mmHg 63%
    13:00 +9°C° 0 mm 2 mps 735 mmHg 63%
    14:00 +9°C° 0 mm 2 mps 734 mmHg 67%
    15:00 +8°C° 0 mm 2 mps 734 mmHg 71%
    16:00 +8°C° 0 mm 2 mps 733 mmHg 75%
    17:00 +8°C° 1.6 mm 2 mps 733 mmHg 81%
    18:00 +8°C° 1.6 mm 3 mps 733 mmHg 87%
    19:00 +8°C° 1.6 mm 3 mps 733 mmHg 93%
    20:00 +8°C° 0.5 mm 3 mps 733 mmHg 93%
    21:00 +8°C° 0.5 mm 3 mps 732 mmHg 92%
    22:00 +7°C° 0.5 mm 4 mps 732 mmHg 92%
    23:00 +8°C° 0.1 mm 3 mps 731 mmHg 89%

    Tomorrow, 13 November, Wednesday

    Time Temperature Precipitation Wind Pressure Humidity
    00:00 +8°C° 0.1 mm 3 mps 731 mmHg 87%
    01:00 +8°C° 0.1 mm 2 mps 731 mmHg 85%
    02:00 +8°C° 0 mm 3 mps 730 mmHg 84%
    03:00 +8°C° 0 mm 3 mps 730 mmHg 84%
    04:00 +9°C° 0 mm 3 mps 729 mmHg 83%
    05:00 +9°C° 0.9 mm 3 mps 729 mmHg 87%
    06:00 +9°C° 0.9 mm 3 mps 729 mmHg 91%
    07:00 +10°C° 0.9 mm 3 mps 729 mmHg 95%
    08:00 +10°C° 0.4 mm 3 mps 729 mmHg 94%
    09:00 +10°C° 0.4 mm 2 mps 728 mmHg 92%
    10:00 +10°C° 0.4 mm 2 mps 728 mmHg 91%
    11:00 +10°C° 0.2 mm 2 mps 728 mmHg 90%
    12:00 +12°C° 0.2 mm 2 mps 727 mmHg 90%
    13:00 +12°C° 0.2 mm 1 mps 727 mmHg 89%
    14:00 +12°C° 0 mm 2 mps 727 mmHg 89%
    15:00 +12°C° 0 mm 2 mps 727 mmHg 88%
    16:00 +12°C° 0 mm 2 mps 728 mmHg 88%
    17:00 +12°C° 0 mm 2 mps 728 mmHg 86%
    18:00 +12°C° 0 mm 2 mps 728 mmHg 84%
    19:00 +11°C° 0 mm 3 mps 728 mmHg 82%
    20:00 +11°C° 0.1 mm 4 mps 728 mmHg 81%
    21:00 +12°C° 0.1 mm 5 mps 727 mmHg 80%
    22:00 +11°C° 0.1 mm 6 mps 727 mmHg 79%
    23:00 +11°C° 0.2 mm 6 mps 727 mmHg 81%

    Day after tomorrow, 14 November, Thursday

    Time Temperature Precipitation Wind Pressure Humidity
    00:00 +10°C° 0.2 mm 5 mps 728 mmHg 83%
    01:00 +10°C° 0.2 mm 5 mps 728 mmHg 85%
    02:00 +9°C° 0.1 mm 5 mps 728 mmHg 86%
    03:00 +8°C° 0.1 mm 5 mps 729 mmHg 87%
    04:00 +7°C° 0.1 mm 4 mps 730 mmHg 88%
    05:00 +7°C° 0 mm 4 mps 730 mmHg 89%
    06:00 +7°C° 0 mm 3 mps 731 mmHg 89%
    07:00 +6°C° 0 mm 2 mps 732 mmHg 89%
    08:00 +7°C° 0 mm 2 mps 733 mmHg 85%
    09:00 +8°C° 0 mm 1 mps 733 mmHg 81%
    10:00 +8°C° 0 mm 1 mps 734 mmHg 77%
    11:00 +9°C° 0 mm 1 mps 734 mmHg 74%
    12:00 +10°C° 0 mm 1 mps 734 mmHg 71%
    13:00 +10°C° 0 mm 1 mps 734 mmHg 68%
    14:00 +9°C° 0 mm 2 mps 734 mmHg 72%
    15:00 +9°C° 0 mm 2 mps 735 mmHg 76%
    16:00 +8°C° 0 mm 3 mps 735 mmHg 80%
    17:00 +8°C° 0 mm 3 mps 735 mmHg 82%
    18:00 +8°C° 0 mm 3 mps 735 mmHg 85%
    19:00 +7°C° 0 mm 4 mps 735 mmHg 87%
    20:00 +7°C° 0 mm 4 mps 735 mmHg 89%
    21:00 +7°C° 0 mm 4 mps 735 mmHg 91%
    22:00 +7°C° 0 mm 4 mps 734 mmHg 94%
    23:00 +8°C° 0 mm 3 mps 734 mmHg 94%

    15 November, Friday

    Time Temperature Precipitation Wind Pressure Humidity
    00:00 +8°C° 0 mm 3 mps 734 mmHg 94%
    01:00 +8°C° 0 mm 3 mps 734 mmHg 94%
    02:00 +8°C° 0 mm 3 mps 734 mmHg 93%
    03:00 +8°C° 0 mm 3 mps 734 mmHg 92%
    04:00 +8°C° 0 mm 3 mps 734 mmHg 91%
    05:00 +8°C° 0 mm 3 mps 734 mmHg 91%
    06:00 +8°C° 0 mm 3 mps 735 mmHg 91%
    07:00 +8°C° 0 mm 3 mps 735 mmHg 90%
    08:00 +8°C° 0 mm 4 mps 735 mmHg 86%
    09:00 +10°C° 0 mm 4 mps 735 mmHg 81%
    10:00 +12°C° 0 mm 5 mps 735 mmHg 77%
    11:00 +13°C° 0 mm 5 mps 735 mmHg 73%
    12:00 +14°C° 0 mm 5 mps 735 mmHg 70%
    13:00 +15°C° 0 mm 5 mps 735 mmHg 66%
    14:00 +14°C° 0 mm 5 mps 735 mmHg 69%
    15:00 +14°C° 0 mm 5 mps 735 mmHg 71%
    16:00 +13°C° 0 mm 5 mps 735 mmHg 73%
    17:00 +13°C° 0 mm 5 mps 735 mmHg 75%
    18:00 +12°C° 0 mm 5 mps 736 mmHg 77%
    19:00 +11°C° 0 mm 6 mps 736 mmHg 79%
    20:00 +12°C° 0 mm 5 mps 736 mmHg 80%
    21:00 +10°C° 0 mm 5 mps 736 mmHg 82%
    22:00 +10°C° 0 mm 5 mps 736 mmHg 83%
    23:00 +10°C° 0 mm 5 mps 736 mmHg 83%

    16 November, Saturday

    Time Temperature Precipitation Wind Pressure Humidity
    00:00 +9°C° 0 mm 5 mps 736 mmHg 83%
    01:00 +10°C° 0 mm 4 mps 736 mmHg 82%
    02:00 +9°C° 0 mm 5 mps 736 mmHg 81%
    03:00 +9°C° 0 mm 5 mps 736 mmHg 80%
    04:00 +9°C° 0 mm 5 mps 736 mmHg 79%
    05:00 +10°C° 0 mm 5 mps 736 mmHg 77%
    06:00 +10°C° 0 mm 5 mps 736 mmHg 76%
    07:00 +10°C° 0 mm 5 mps 736 mmHg 75%
    08:00 +12°C° 0 mm 5 mps 736 mmHg 72%
    09:00 +12°C° 0 mm 5 mps 737 mmHg 70%
    10:00 +13°C° 0 mm 5 mps 737 mmHg 68%
    11:00 +13°C° 0 mm 5 mps 738 mmHg 67%
    12:00 +14°C° 0 mm 4 mps 738 mmHg 66%
    13:00 +14°C° 0 mm 3 mps 738 mmHg 65%
    14:00 +13°C° 0 mm 3 mps 738 mmHg 68%
    15:00 +14°C° 0 mm 2 mps 738 mmHg 71%
    16:00 +13°C° 0 mm 2 mps 739 mmHg 73%
    17:00 +13°C° 0 mm 2 mps 739 mmHg 75%
    18:00 +13°C° 0 mm 2 mps 739 mmHg 76%
    19:00 +12°C° 0 mm 1 mps 740 mmHg 77%
    20:00 +12°C° 0 mm 1 mps 740 mmHg 79%
    21:00 +12°C° 0 mm 2 mps 740 mmHg 80%
    22:00 +10°C° 0 mm 2 mps 740 mmHg 82%
    23:00 +10°C° 0 mm 2 mps 740 mmHg 84%

    17 November, Sunday

    Time Temperature Precipitation Wind Pressure Humidity
    00:00 +10°C° 0 mm 2 mps 740 mmHg 85%
    01:00 +9°C° 0 mm 3 mps 739 mmHg 87%
    02:00 +9°C° 0 mm 3 mps 739 mmHg 87%
    03:00 +9°C° 0 mm 3 mps 739 mmHg 86%
    04:00 +9°C° 0 mm 3 mps 738 mmHg 85%
    05:00 +8°C° 0 mm 4 mps 738 mmHg 85%
    06:00 +7°C° 0 mm 4 mps 738 mmHg 85%
    07:00 +7°C° 0 mm 4 mps 738 mmHg 85%
    08:00 +8°C° 0 mm 4 mps 738 mmHg 83%
    09:00 +8°C° 0 mm 4 mps 738 mmHg 81%
    10:00 +10°C° 0 mm 4 mps 738 mmHg 78%
    11:00 +10°C° 0 mm 4 mps 737 mmHg 75%
    12:00 +11°C° 0 mm 4 mps 737 mmHg 72%
    13:00 +12°C° 0 mm 4 mps 737 mmHg 70%
    14:00 +11°C° 0 mm 3 mps 737 mmHg 73%
    15:00 +10°C° 0 mm 3 mps 737 mmHg 76%
    16:00 +10°C° 0 mm 3 mps 736 mmHg 79%
    17:00 +9°C° 0 mm 3 mps 736 mmHg 81%
    18:00 +9°C° 0 mm 3 mps 736 mmHg 83%
    19:00 +8°C° 0 mm 3 mps 736 mmHg 85%
    20:00 +8°C° 0 mm 3 mps 736 mmHg 85%
    21:00 +8°C° 0 mm 3 mps 737 mmHg 85%
    22:00 +7°C° 0 mm 3 mps 737 mmHg 86%
    23:00 +7°C° 0 mm 3 mps 736 mmHg 87%
    Show more